Location: Claremont
(33.9858°S, 18.4575°E)
Time: 11:14:10
(UTC+00:00)

CZ-3 Stage 3 - Pass Details

Date: 03 March 2021
Orbit: 392 x 35109 km, 30.3° (Epoch: 07 April)

Event Time Altitude Azimuth Distance (km) Brightness Sun altitude
Rises 17:40:10 0° 297° (WNW) 2,293 6.9 -5.0°
Reaches altitude 10° 17:41:48 10° 307° (NW) 1,462 5.6 -5.3°
Maximum altitude 17:44:16 38° 20° (NNE) 817 3.5 -5.8°
Drops below altitude 10° 17:49:29 10° 89° (E) 3,111 6.0 -6.9°
Enters shadow 17:50:53 - 91° (E) 3,820 6.4 -7.2°
